FW2194 Weather Reports


Display with metric or nautical units.
time (UTC)temp
F
wind
direction
speed
MPH
gust
MPH
rain 1hr
in
rain 24hr
in
rain mn
in
humidity
%
barometer
mb
20211130060905 30 273 0.0 0.0 0.00 0.00 0.00 83 1019.4
20211130060406 30 273 0.0 0.0 0.00 0.00 0.00 83 1019.4
20211130055905 29 273 0.0 0.0 0.00 0.00 0.00 82 1019.5
20211130055405 29 273 0.0 0.0 0.00 0.00 0.00 83 1019.5
20211130054905 29 273 0.0 0.0 0.00 0.00 0.00 84 1019.5
20211130054405 29 273 0.0 0.0 0.00 0.00 0.00 84 1019.6
20211130053905 29 273 0.0 0.0 0.00 0.00 0.00 85 1019.6
20211130053405 29 273 0.0 1.0 0.00 0.00 0.00 85 1019.6
20211130052906 29 303 0.0 1.0 0.00 0.00 0.00 85 1019.5
20211130052405 29 303 1.0 3.0 0.00 0.00 0.00 85 1019.5
20211130051905 28 303 2.0 3.0 0.00 0.00 0.00 86 1019.5
20211130051405 28 300 2.0 3.0 0.00 0.00 0.00 86 1019.4
20211130050905 28 300 1.0 2.0 0.00 0.00 0.00 85 1019.4
20211130050405 28 300 0.0 1.0 0.00 0.00 0.00 85 1019.4
20211130045905 28 300 1.0 2.0 0.00 0.00 0.00 86 1019.7
20211130045405 28 300 0.0 0.0 0.00 0.00 0.00 86 1019.7
20211130044905 27 300 0.0 1.0 0.00 0.00 0.00 87 1019.7
20211130044405 27 300 0.0 0.0 0.00 0.00 0.00 86 1019.5
20211130043905 27 300 0.0 1.0 0.00 0.00 0.00 87 1019.5
20211130043405 27 300 0.0 1.0 0.00 0.00 0.00 87 1019.5
20211130042905 27 300 0.0 1.0 0.00 0.00 0.00 87 1019.5
20211130042406 27 300 0.0 0.0 0.00 0.00 0.00 87 1019.5
20211130041905 26 300 0.0 1.0 0.00 0.00 0.00 87 1019.5
20211130041405 26 300 0.0 0.0 0.00 0.00 0.00 87 1019.4
20211130040906 26 300 0.0 1.0 0.00 0.00 0.00 86 1019.4
20211130040405 26 300 0.0 2.0 0.00 0.00 0.00 87 1019.4
20211130035905 26 300 2.0 3.0 0.00 0.00 0.00 86 1019.5
20211130035405 26 299 2.0 3.0 0.00 0.00 0.00 86 1019.5
20211130034905 26 299 0.0 0.0 0.00 0.00 0.00 86 1019.5
20211130034405 26 299 0.0 0.0 0.00 0.00 0.00 85 1019.5
20211130033909 26 299 0.0 1.0 0.00 0.00 0.00 85 1019.5
20211130033405 26 299 1.0 1.0 0.00 0.00 0.00 85 1019.5
20211130032906 26 299 0.0 1.0 0.00 0.00 0.00 85 1019.4
20211130032405 26 299 0.0 0.0 0.00 0.00 0.00 85 1019.4
20211130031905 26 299 0.0 1.0 0.00 0.00 0.00 85 1019.4
20211130031405 26 299 1.0 3.0 0.00 0.00 0.00 85 1019.5
20211130030906 26 300 0.0 0.0 0.00 0.00 0.00 84 1019.5
20211130030406 27 300 0.0 1.0 0.00 0.00 0.00 84 1019.5
20211130025905 27 300 0.0 1.0 0.00 0.00 0.00 84 1019.5
20211130025405 27 300 0.0 2.0 0.00 0.00 0.00 84 1019.5
20211130024905 27 300 0.0 0.0 0.00 0.00 0.00 84 1019.5
20211130024405 27 300 0.0 0.0 0.00 0.00 0.00 85 1019.5
20211130023904 27 300 1.0 2.0 0.00 0.00 0.00 85 1019.5
20211130023405 27 300 0.0 2.0 0.00 0.00 0.00 84 1019.5
20211130022905 27 300 0.0 0.0 0.00 0.00 0.00 83 1019.4
20211130022406 27 300 0.0 0.0 0.00 0.00 0.00 83 1019.4
20211130021908 27 300 0.0 0.0 0.00 0.00 0.00 83 1019.4
20211130021405 27 300 0.0 0.0 0.00 0.00 0.00 82 1019.4
20211130020906 28 300 0.0 0.0 0.00 0.00 0.00 82 1019.4
20211130020405 28 300 0.0 0.0 0.00 0.00 0.00 82 1019.4
20211130015905 28 300 0.0 0.0 0.00 0.00 0.00 83 1019.3
20211130015405 28 300 1.0 2.0 0.00 0.00 0.00 83 1019.3
20211130014905 28 300 2.0 2.0 0.00 0.00 0.00 82 1019.3
20211130014405 28 300 0.0 1.0 0.00 0.00 0.00 81 1019.2
20211130013905 28 300 0.0 0.0 0.00 0.00 0.00 81 1019.2
20211130013406 28 300 0.0 0.0 0.00 0.00 0.00 81 1019.2
20211130012905 29 300 0.0 0.0 0.00 0.00 0.00 81 1019.1
20211130012405 29 300 0.0 0.0 0.00 0.00 0.00 80 1019.1
20211130011905 29 300 0.0 0.0 0.00 0.00 0.00 80 1019.1
20211130011405 29 300 0.0 0.0 0.00 0.00 0.00 80 1019.1
20211130010905 29 300 0.0 1.0 0.00 0.00 0.00 80 1019.1
20211130010405 29 300 0.0 1.0 0.00 0.00 0.00 80 1019.1
20211130005905 30 300 0.0 1.0 0.00 0.00 0.00 79 1019.3
20211130005405 30 300 1.0 1.0 0.00 0.00 0.00 78 1019.3
20211130004905 30 300 1.0 2.0 0.00 0.00 0.00 78 1019.3
20211130004405 30 300 0.0 2.0 0.00 0.00 0.00 78 1019.1
20211130003905 30 300 1.0 2.0 0.00 0.00 0.00 78 1019.1
20211130003405 31 300 1.0 2.0 0.00 0.00 0.00 77 1019.1
20211130002905 31 300 0.0 0.0 0.00 0.00 0.00 76 1019.0
20211130002405 31 300 0.0 0.0 0.00 0.00 0.00 76 1019.0
20211130001905 31 300 0.0 0.0 0.00 0.00 0.00 75 1019.0
20211130001405 31 300 0.0 2.0 0.00 0.00 0.00 75 1018.9
20211130000905 32 300 1.0 2.0 0.00 0.00 0.00 74 1018.9
20211130000407 32 300 0.0 0.0 0.00 0.00 0.00 73 1018.9
20211129235905 32 300 0.0 1.0 0.00 0.00 0.00 73 1018.5
20211129235405 33 300 1.0 2.0 0.00 0.00 0.00 72 1018.5
20211129234905 33 300 0.0 2.0 0.00 0.00 0.00 72 1018.5
20211129234405 33 300 2.0 3.0 0.00 0.00 0.00 72 1018.4
20211129233905 34 300 0.0 2.0 0.00 0.00 0.00 70 1018.4
20211129233405 34 300 0.0 1.0 0.00 0.00 0.00 69 1018.4
20211129232906 34 300 1.0 2.0 0.00 0.00 0.00 68 1018.4
20211129232405 35 300 0.0 0.0 0.00 0.00 0.00 67 1018.4
20211129231905 35 300 0.0 0.0 0.00 0.00 0.00 67 1018.4
20211129231405 36 300 0.0 1.0 0.00 0.00 0.00 66 1018.4
20211129230905 36 300 0.0 2.0 0.00 0.00 0.00 66 1018.4
20211129230405 36 300 1.0 2.0 0.00 0.00 0.00 66 1018.4
20211129225906 36 300 0.0 1.0 0.00 0.00 0.00 65 1018.0
20211129225406 36 300 1.0 3.0 0.00 0.00 0.00 63 1018.0
20211129224905 37 337 1.0 2.0 0.00 0.00 0.00 61 1018.0
20211129224405 37 337 0.0 1.0 0.00 0.00 0.00 61 1018.0
20211129223905 38 337 0.0 1.0 0.00 0.00 0.00 60 1018.0
20211129223405 38 337 0.0 1.0 0.00 0.00 0.00 59 1018.0
20211129222904 39 337 0.0 0.0 0.00 0.00 0.00 59 1017.9
20211129222405 39 337 0.0 1.0 0.00 0.00 0.00 57 1017.9
20211129221905 40 337 1.0 2.0 0.00 0.00 0.00 57 1017.9
20211129221405 40 337 1.0 2.0 0.00 0.00 0.00 56 1017.9
20211129220905 40 337 1.0 2.0 0.00 0.00 0.00 55 1017.9
20211129220405 41 337 0.0 3.0 0.00 0.00 0.00 54 1017.9
20211129215905 41 338 1.0 3.0 0.00 0.00 0.00 54 1017.7
20211129215405 41 344 1.0 3.0 0.00 0.00 0.00 53 1017.7
20211129214905 42 345 1.0 2.0 0.00 0.00 0.00 53 1017.7
20211129214406 42 345 1.0 3.0 0.00 0.00 0.00 51 1017.7
20211129213905 42 320 1.0 3.0 0.00 0.00 0.00 52 1017.7
20211129213405 42 338 2.0 6.0 0.00 0.00 0.00 51 1017.7
20211129212905 42 334 1.0 3.0 0.00 0.00 0.00 52 1017.6
20211129212404 43 334 1.0 3.0 0.00 0.00 0.00 51 1017.6
20211129211905 43 349 3.0 6.0 0.00 0.00 0.00 51 1017.6
20211129211405 43 343 3.0 10.0 0.00 0.00 0.00 50 1017.6
20211129210905 43 290 3.0 10.0 0.00 0.00 0.00 51 1017.6
20211129210405 43 313 4.0 8.0 0.00 0.00 0.00 51 1017.6
20211129205905 44 338 3.0 5.0 0.00 0.00 0.00 50 1017.3
20211129205405 44 343 5.0 9.0 0.00 0.00 0.00 49 1017.3
20211129204905 44 340 3.0 8.0 0.00 0.00 0.00 51 1017.3
20211129204404 44 354 4.0 9.0 0.00 0.00 0.00 52 1017.2
20211129203905 44 355 5.0 12.0 0.00 0.00 0.00 51 1017.2
20211129203405 44 336 2.0 5.0 0.00 0.00 0.00 52 1017.2
20211129202905 44 301 3.0 6.0 0.00 0.00 0.00 51 1017.0
20211129202404 45 295 3.0 10.0 0.00 0.00 0.00 51 1017.0
20211129201905 45 285 4.0 10.0 0.00 0.00 0.00 51 1017.0
20211129201405 45 338 5.0 10.0 0.00 0.00 0.00 52 1016.9
20211129200905 45 337 3.0 10.0 0.00 0.00 0.00 52 1016.9
20211129200405 45 325 4.0 9.0 0.00 0.00 0.00 51 1016.9
20211129195905 45 359 4.0 12.0 0.00 0.00 0.00 52 1016.9
20211129195405 44 343 4.0 12.0 0.00 0.00 0.00 52 1016.9
20211129194905 44 334 3.0 10.0 0.00 0.00 0.00 52 1016.9
20211129194405 44 347 5.0 10.0 0.00 0.00 0.00 51 1017.0
20211129193904 45 331 7.0 12.0 0.00 0.00 0.00 51 1017.0
20211129193405 45 280 3.0 7.0 0.00 0.00 0.00 52 1017.0
20211129192905 45 256 2.0 7.0 0.00 0.00 0.00 52 1017.1
20211129192405 45 338 3.0 7.0 0.00 0.00 0.00 54 1017.1
20211129191905 44 334 3.0 7.0 0.00 0.00 0.00 54 1017.1
20211129191404 44 280 4.0 10.0 0.00 0.00 0.00 54 1017.1
20211129190905 44 345 4.0 12.0 0.00 0.00 0.00 54 1017.1
20211129190405 44 337 5.0 12.0 0.00 0.00 0.00 54 1017.1
20211129185904 44 328 3.0 10.0 0.00 0.00 0.00 54 1017.1
20211129185405 44 318 6.0 9.0 0.00 0.00 0.00 53 1017.1
20211129184904 44 283 2.0 6.0 0.00 0.00 0.00 54 1017.1
20211129184404 44 280 5.0 12.0 0.00 0.00 0.00 53 1017.0
20211129183904 44 270 5.0 13.0 0.00 0.00 0.00 52 1017.0
20211129183404 45 287 5.0 13.0 0.00 0.00 0.00 53 1017.0
20211129182905 44 271 7.0 12.0 0.00 0.00 0.00 53 1016.7
20211129182405 45 327 5.0 12.0 0.00 0.00 0.00 52 1016.7
20211129181905 45 323 6.0 18.0 0.00 0.00 0.00 52 1016.7
20211129181404 45 322 4.0 14.0 0.00 0.00 0.00 55 1016.8
20211129180904 44 279 4.0 13.0 0.00 0.00 0.00 55 1016.8
20211129180405 43 320 4.0 12.0 0.00 0.00 0.00 55 1016.8
20211129175904 43 337 6.0 12.0 0.00 0.00 0.00 55 1016.9
20211129175405 43 333 7.0 12.0 0.00 0.00 0.00 54 1016.9
20211129174904 43 314 6.0 12.0 0.00 0.00 0.00 54 1016.9
20211129174405 43 315 3.0 10.0 0.00 0.00 0.00 55 1017.0
20211129173905 43 327 3.0 10.0 0.00 0.00 0.00 55 1017.0
20211129173404 43 284 3.0 10.0 0.00 0.00 0.00 53 1017.0
20211129172905 44 293 2.0 9.0 0.00 0.00 0.00 55 1017.2
20211129172405 43 260 5.0 12.0 0.00 0.00 0.00 54 1017.2
20211129171905 43 317 5.0 16.0 0.00 0.00 0.00 56 1017.2
20211129171404 43 324 5.0 12.0 0.00 0.00 0.00 55 1017.3
20211129170905 43 282 3.0 10.0 0.00 0.00 0.00 56 1017.3
20211129170405 43 289 5.0 13.0 0.00 0.00 0.00 55 1017.3
20211129165905 43 307 5.0 12.0 0.00 0.00 0.00 55 1017.5
20211129165405 43 307 5.0 12.0 0.00 0.00 0.00 54 1017.5
20211129164905 43 326 5.0 12.0 0.00 0.00 0.00 54 1017.5
20211129164405 43 320 2.0 7.0 0.00 0.00 0.00 55 1017.6
20211129163905 43 333 5.0 7.0 0.00 0.00 0.00 53 1017.6
20211129163404 43 306 5.0 9.0 0.00 0.00 0.00 54 1017.6
20211129162905 44 315 3.0 9.0 0.00 0.00 0.00 54 1017.6
20211129162404 44 318 6.0 10.0 0.00 0.00 0.00 53 1017.6
20211129161905 44 333 5.0 15.0 0.00 0.00 0.00 53 1017.6
20211129161406 44 317 7.0 15.0 0.00 0.00 0.00 52 1017.5
20211129160905 45 334 10.0 17.0 0.00 0.00 0.00 51 1017.5
20211129160409 45 319 6.0 15.0 0.00 0.00 0.00 53 1017.5
20211129155905 44 347 8.0 16.0 0.00 0.00 0.00 54 1017.7
20211129155405 44 295 6.0 16.0 0.00 0.00 0.00 54 1017.7
20211129154904 44 344 7.0 22.0 0.00 0.00 0.00 53 1017.7
20211129154405 44 353 8.0 17.0 0.00 0.00 0.00 53 1017.9
20211129153905 43 295 7.0 18.0 0.00 0.00 0.00 56 1017.9
20211129153405 43 320 7.0 18.0 0.00 0.00 0.00 56 1017.9
20211129152905 43 300 5.0 14.0 0.00 0.00 0.00 57 1017.9
20211129152405 43 283 4.0 16.0 0.00 0.00 0.00 57 1017.9
20211129151905 43 309 7.0 16.0 0.00 0.00 0.00 56 1017.9
20211129151404 43 330 5.0 13.0 0.00 0.00 0.00 59 1017.8
20211129150904 42 309 7.0 18.0 0.00 0.00 0.00 58 1017.8
20211129150404 42 334 6.0 16.0 0.00 0.00 0.00 59 1017.8
20211129145904 42 0 9.0 16.0 0.00 0.00 0.00 59 1017.8
20211129145404 41 336 6.0 15.0 0.00 0.00 0.00 60 1017.8
20211129144904 41 343 3.0 22.0 0.00 0.00 0.00 59 1017.8
20211129144405 41 349 6.0 14.0 0.00 0.00 0.00 60 1017.7
20211129143904 42 307 5.0 12.0 0.00 0.00 0.00 59 1017.7
20211129143404 41 330 3.0 14.0 0.00 0.00 0.00 61 1017.7
20211129142905 41 329 7.0 14.0 0.00 0.00 0.00 59 1017.7
20211129142405 41 317 3.0 14.0 0.00 0.00 0.00 60 1017.7
20211129141904 41 335 5.0 15.0 0.00 0.00 0.00 60 1017.7
20211129141405 41 4 4.0 15.0 0.00 0.00 0.00 60 1017.7
20211129140905 41 305 2.0 8.0 0.00 0.00 0.00 61 1017.7
20211129140405 40 327 3.0 9.0 0.00 0.00 0.00 61 1017.7
20211129135904 40 321 4.0 10.0 0.00 0.00 0.00 61 1017.5
20211129135404 40 306 5.0 12.0 0.00 0.00 0.00 62 1017.5
20211129134905 40 228 5.0 12.0 0.00 0.00 0.00 62 1017.5
20211129134405 40 294 4.0 10.0 0.00 0.00 0.00 62 1017.3
20211129133905 40 292 5.0 10.0 0.00 0.00 0.00 62 1017.3
20211129133404 40 300 4.0 9.0 0.00 0.00 0.00 62 1017.3
20211129132905 39 296 2.0 6.0 0.00 0.00 0.00 63 1017.3
20211129132404 39 18 2.0 5.0 0.00 0.00 0.00 64 1017.3
20211129131904 38 313 0.0 2.0 0.00 0.00 0.00 67 1017.3
20211129131405 37 313 1.0 3.0 0.00 0.00 0.00 67 1017.0
20211129130905 37 325 2.0 3.0 0.00 0.00 0.00 67 1017.0
20211129130404 36 331 2.0 5.0 0.00 0.00 0.00 67 1017.0
20211129125905 36 295 2.0 3.0 0.00 0.00 0.00 66 1016.8
20211129125405 36 231 2.0 3.0 0.00 0.00 0.00 67 1016.8
20211129124905 36 350 1.0 3.0 0.00 0.00 0.00 67 1016.8
20211129124404 36 317 1.0 3.0 0.00 0.00 0.00 67 1016.7
20211129123905 35 282 2.0 5.0 0.00 0.00 0.00 67 1016.7
20211129123405 35 296 3.0 7.0 0.00 0.00 0.00 67 1016.7
20211129122905 35 242 1.0 3.0 0.00 0.00 0.00 67 1016.3
20211129122404 35 240 3.0 8.0 0.00 0.00 0.00 67 1016.3
20211129121905 35 311 3.0 7.0 0.00 0.00 0.00 67 1016.3
20211129121404 34 280 1.0 3.0 0.00 0.00 0.00 67 1016.3
20211129120905 34 282 3.0 5.0 0.00 0.00 0.00 67 1016.3
20211129120405 34 250 2.0 3.0 0.00 0.00 0.00 67 1016.3
20211129115905 34 275 1.0 3.0 0.00 0.00 0.00 67 1016.2
20211129115404 34 296 1.0 3.0 0.00 0.00 0.00 67 1016.2
20211129114904 34 283 2.0 3.0 0.00 0.00 0.00 67 1016.2
20211129114404 34 291 1.0 3.0 0.00 0.00 0.00 67 1015.9
20211129113904 34 332 1.0 3.0 0.00 0.00 0.00 66 1015.9
20211129113404 34 342 1.0 3.0 0.00 0.00 0.00 66 1015.9
20211129112904 34 275 1.0 3.0 0.00 0.00 0.00 66 1015.7
20211129112405 34 296 2.0 3.0 0.00 0.00 0.00 65 1015.7
20211129111905 34 329 1.0 3.0 0.00 0.00 0.00 65 1015.7
20211129111404 34 308 2.0 10.0 0.00 0.00 0.00 65 1015.5
20211129110904 34 337 2.0 3.0 0.00 0.00 0.00 65 1015.5
20211129110405 34 221 1.0 3.0 0.00 0.00 0.00 64 1015.5
20211129105905 35 230 1.0 3.0 0.00 0.00 0.00 63 1015.1
20211129105405 35 295 0.0 3.0 0.00 0.00 0.00 63 1015.1
20211129104905 35 331 2.0 7.0 0.00 0.00 0.00 63 1015.1
20211129104405 35 330 4.0 7.0 0.00 0.00 0.00 63 1014.7
20211129103905 35 266 2.0 5.0 0.00 0.00 0.00 63 1014.7
20211129103406 35 292 3.0 6.0 0.00 0.00 0.00 62 1014.7
20211129102905 35 305 3.0 7.0 0.00 0.00 0.00 62 1014.7
20211129102405 35 281 2.0 7.0 0.00 0.00 0.00 61 1014.7
20211129101905 35 285 4.0 7.0 0.00 0.00 0.00 60 1014.7
20211129101404 35 282 3.0 12.0 0.00 0.00 0.00 61 1014.6
20211129100905 34 277 6.0 14.0 0.00 0.00 0.00 61 1014.6
20211129100405 34 242 2.0 5.0 0.00 0.00 0.00 60 1014.6
20211129095905 34 285 3.0 9.0 0.00 0.00 0.00 60 1014.5
20211129095404 34 320 3.0 8.0 0.00 0.00 0.00 60 1014.5
20211129094904 34 290 2.0 6.0 0.00 0.00 0.00 60 1014.5
20211129094404 34 248 3.0 7.0 0.00 0.00 0.00 60 1014.4
20211129093904 34 289 3.0 6.0 0.00 0.00 0.00 60 1014.4
20211129093404 34 311 4.0 7.0 0.00 0.00 0.00 60 1014.4
20211129092905 35 293 3.0 7.0 0.00 0.00 0.00 59 1014.1
20211129092405 35 328 3.0 5.0 0.00 0.00 0.00 59 1014.1
20211129091904 35 303 2.0 7.0 0.00 0.00 0.00 59 1014.1
20211129091406 34 285 3.0 7.0 0.00 0.00 0.00 60 1014.0
20211129090905 35 295 2.0 3.0 0.00 0.00 0.00 60 1014.0
20211129090404 35 285 2.0 3.0 0.00 0.00 0.00 60 1014.0
20211129085905 35 290 2.0 3.0 0.00 0.00 0.00 60 1014.1
20211129085405 35 253 2.0 7.0 0.00 0.00 0.00 59 1014.1
20211129084904 35 238 1.0 3.0 0.00 0.00 0.00 59 1014.1
20211129084404 36 273 2.0 3.0 0.00 0.00 0.00 58 1014.2
20211129083904 36 316 2.0 3.0 0.00 0.00 0.00 58 1014.2
20211129083404 36 332 3.0 10.0 0.00 0.00 0.00 57 1014.2
20211129082905 36 323 4.0 10.0 0.00 0.00 0.00 57 1014.1
20211129082405 36 310 5.0 10.0 0.00 0.00 0.00 57 1014.1
20211129081905 37 274 4.0 7.0 0.00 0.00 0.00 57 1014.1
20211129081404 37 302 3.0 7.0 0.00 0.00 0.00 56 1014.4
20211129080905 37 323 6.0 16.0 0.00 0.00 0.00 56 1014.4
20211129080405 37 328 5.0 10.0 0.00 0.00 0.00 57 1014.4
20211129075905 37 318 3.0 6.0 0.00 0.00 0.00 57 1014.1
20211129075405 37 310 3.0 7.0 0.00 0.00 0.00 57 1014.1
20211129074905 37 293 3.0 7.0 0.00 0.00 0.00 57 1014.1
20211129074405 37 300 5.0 7.0 0.00 0.00 0.00 56 1014.1
20211129073904 38 307 3.0 6.0 0.00 0.00 0.00 55 1014.1
20211129073404 38 315 2.0 6.0 0.00 0.00 0.00 55 1014.1
20211129072904 38 295 2.0 6.0 0.00 0.00 0.00 54 1014.0
20211129072405 38 286 3.0 8.0 0.00 0.00 0.00 53 1014.0
20211129071904 39 321 6.0 12.0 0.00 0.00 0.00 52 1014.0
20211129071406 39 310 3.0 5.0 0.00 0.00 0.00 52 1013.8
20211129070904 39 335 3.0 7.0 0.00 0.00 0.00 52 1013.8
20211129070406 39 344 4.0 12.0 0.00 0.00 0.00 51 1013.8
20211129065904 40 314 4.0 9.0 0.00 0.00 0.00 51 1013.4
20211129065404 40 305 5.0 12.0 0.00 0.00 0.00 50 1013.4
20211129064904 40 284 5.0 10.0 0.00 0.00 0.00 50 1013.4
20211129064404 40 292 7.0 15.0 0.00 0.00 0.00 50 1012.9
20211129063904 40 316 7.0 13.0 0.00 0.00 0.00 49 1012.9
20211129063404 41 314 10.0 18.0 0.00 0.00 0.00 49 1012.9
20211129062904 41 323 12.0 20.0 0.00 0.00 0.00 49 1012.3
20211129062404 41 334 12.0 24.0 0.00 0.00 0.00 48 1012.3
20211129061905 41 333 13.0 20.0 0.00 0.00 0.00 48 1012.3
20211129061405 41 329 10.0 20.0 0.00 0.00 0.00 48 1012.6